Location: Unspecified
(0.0000°N, 0.0000°E)
Time: 02:44:25
(UTC+00:00)

SR - All Passes

Search period start: 17 January 2017 00:00
Search period end: 27 January 2017 00:00
Orbit: 577 x 881 km, 66.7° (Epoch: 16 January)

Date Brightness Start Highest point End Pass type
(mag) Time Alt. Az. Time Alt. Az. Time Alt. Az.
17 Jan - 03:34:48 10° S 03:38:52 48° ESE 03:43:02 10° NE night (unlit)
17 Jan - 14:23:02 10° ENE 14:23:32 10° ENE 14:24:01 10° ENE daylight
17 Jan - 15:59:42 10° NNW 16:05:32 62° WSW 16:11:12 10° S daylight
18 Jan - 02:46:57 10° SSE 02:49:36 16° ESE 02:52:15 10° ENE night (unlit)
18 Jan - 04:28:22 10° WSW 04:31:20 19° WNW 04:34:23 10° NNW night (unlit)
18 Jan - 15:10:25 10° N 15:16:13 57° ENE 15:21:51 10° SSE daylight
18 Jan - 16:56:33 10° W 16:58:03 11° WSW 16:59:32 10° SW daylight
19 Jan - 03:37:52 10° SSW 03:42:00 56° WNW 03:46:17 10° N night (unlit)
19 Jan - 14:22:11 10° NNE 14:26:51 24° ENE 14:31:25 10° ESE daylight
19 Jan - 16:03:49 10° NW 16:08:44 27° WSW 16:13:31 10° SSW daylight
20 Jan - 02:48:42 10° S 02:52:44 44° ESE 02:56:52 10° NE night (unlit)
20 Jan - 15:13:35 10° NNW 15:19:26 65° WSW 15:25:07 10° S daylight
21 Jan - 02:01:01 10° SE 02:03:28 15° ESE 02:05:56 10° ENE night (unlit)
21 Jan - 03:42:04 10° WSW 03:45:12 20° WNW 03:48:25 10° NNW night (unlit)
21 Jan - 14:24:22 10° N 14:30:08 53° ENE 14:35:42 10° SSE daylight
21 Jan - 16:09:58 10° W 16:11:58 12° WSW 16:13:56 10° SW daylight
22 Jan - 02:51:43 10° SSW 02:55:52 61° WNW 03:00:11 10° N night (unlit)
22 Jan - 13:36:13 10° NNE 13:40:46 23° ENE 13:45:11 10° ESE daylight
22 Jan - 15:17:39 10° NW 15:22:39 29° WSW 15:27:31 10° SSW daylight
23 Jan - 02:02:37 10° S 02:06:36 41° ESE 02:10:42 10° NE night (unlit)
23 Jan - 14:27:29 10° NNW 14:33:21 69° WSW 14:39:01 10° SSE daylight
24 Jan - 01:15:06 10° SE 01:17:21 14° ESE 01:19:36 10° ENE night (unlit)
24 Jan - 02:55:48 10° WSW 02:59:04 21° WNW 03:02:27 10° NNW night (unlit)
24 Jan - 13:38:20 10° N 13:44:02 50° ENE 13:49:34 10° SE daylight
24 Jan - 15:23:31 10° W 15:25:52 12° WSW 15:28:11 10° SW daylight
25 Jan - 02:05:33 10° SSW 02:09:44 66° WNW 02:14:07 10° NNE night (unlit)
25 Jan - 12:50:17 10° NNE 12:54:40 22° ENE 12:58:57 10° ESE daylight
25 Jan - 14:31:29 10° NW 14:36:34 31° WSW 14:41:29 10° S daylight
26 Jan - 01:16:33 10° S 01:20:28 38° ESE 01:24:32 10° NE night (unlit)
26 Jan - 13:41:23 10° NNW 13:47:16 73° WSW 13:52:55 10° SSE daylight
